Погода Бельцы

Погода Бельцы : погода сейчас, прогноз погоды и архив. Всё, что Вы хотите узнать о погоде Бельцы!

Поиск расширенной информации на нашем сайте:

Другие новости

Новости СМИ2

Главная страница сайта

Новости сайта

02.10.2013

Напоминаем, что на нашем новом сайте вы можете получить высокодетализированные прогнозы погоды по пунктам России, СНГ и мира (включающие важные для авиации метеовеличины, такие как направление и скорость ветра, видимость, явления погоды, количество и форма облачности, нижняя и верхняя граница облачности), а также ознакомиться с разнообразными материалами по авиационной метеорологии и подборкой полезных ссылок на эту тему.

Сайт Метеоцентр.Азия посвящён разработке технологий оптимизации авиаметеорологического обслуживания, включая проектирование и перспективное создание нескольких автоматизированных авиаметеорологических систем:
- система выпуска высокодетальных прогностических карт явлений погоды для нижнего воздушного пространства по России и ближнему зарубежью;
- система верификации прогнозов TAF (выпускаемых синоптиками официальных АМСГ РФ и ближнего зарубежья) и AUTOTAF (выпускаемых сайтом Метеоцентр.Азия) - выявление ошибок, онлайн-сопоставление с фактической погодой METAR, автоматическое внесение коррективов в прогнозы при резком отклонении фактической погоды от прогноза, подсчёт оправдываемости прогнозов по элементам и в целом;
- система обработки, анализа и отображения авиаметеорологической информации для применения провайдерами метеорологической информации.

Рекомендуем: ремонт промышленных стиральных машин москва

Погода Бельцы - сегодня

Время (UTC), дата Ветер
(°,м/с) 
Видим.   Явления Облачность Т
(°С)
Тd
(°С)
f(%) Тe
(°С)
Pmin
(гПа)
dP
(гПа)
Po
(мм)
O2
(г/м3)
Тmin Tmax R s Состояние
почвы
06 23.05.17 тихо ()   10 км    ясно 
+18.5 +6 44 +19  1018.9  0.9  750  282  +6.4         
09 23.05.17 110 (В) 10 км    4/4 1000 м 
[Cu hum]
+22.8 +1.8 25 +23  1018.6  -0.1  750  279           
12 23.05.17 270 (З) 10 км    6/6 1000 м 
[Cu hum]
+23.7 +2 24 +24  1017.4  -1.1  749  278           
15 23.05.17 тихо ()   10 км    4/4 1000 м 
[Cu hum]
+24.1 +2.3 24 +24  1015.7  -1.6  748  277           
18 23.05.17 тихо ()   10 км    ясно 
+18.8 +5.3 41 +19  1017.1  749  281    +25.4       
21 23.05.17 тихо ()   10 км    ясно 
+13.4 +5.8 60 +13  1018  0.6  749  287           
00 24.05.17 140 (ЮВ) 10 км    3/0 верхняя 
[Ci fib]
+13.9 +5.8 58 +15  1017.6  -0.4  749  286           
03 24.05.17 тихо ()   10 км    6/3 600 м верхняя 
[Sc|Ci fib]
+11.6 +6.5 71 +12  1017.5  -0.2  749  288           
06 24.05.17 140 (ЮВ) 10 км    3/0 верхняя 
[Ci fib]
+19.1 +8.1 49 +20  1016.7  -0.3  749  281  +10.3         
09 24.05.17 140 (ЮВ) 10 км    4/0 верхняя 
[Cs]
+23.7 +6 32 +24  1015.7  -0.7  748  276           
12 24.05.17 140 (ЮВ) 10 км    8/3 1000 м верхняя 
[Cu hum|Cs]
+24.8 +6.1 30 +25  1014.2  -1.4  747  275           
15 24.05.17 150 (ЮВ) 10 км    8/0 верхняя 
[Cs]
+23.3 +4.8 30 +23  1013.4  -0.9  746  276           
18 24.05.17 140 (ЮВ) 10 км    8/5 600 м кучево-дожд., средняя 
[Cb cap|Ac trans]
+20.1 +5.4 38 +20  1014  0.4  747  279    +25.2       
21 24.05.17 130 (ЮВ) 10 км    8/0 средняя 
[Ac trans]
+16 +5.9 51 +17  1015.1  0.8  747  283           
00 25.05.17 140 (ЮВ) 10 км    6/0 средняя 
[Ac trans]
+13.1 +5.3 59 +14  1015.1  -0.2  747  286           
03 25.05.17 120 (ЮВ) 10 км    6/4 600 м средняя 
[Sc|Ac trans]
+11.9 +6.2 68 +13  1015.2  747  287           
06 25.05.17 170 (Ю) 10 км    8/0 средняя, верхняя 
[Ac trans|Ci fib]
+16.6 +7.3 54 +18  1015.6  0.7  748  283  +11.8         
09 25.05.17 160 (Ю) 10 км    8/8 600 м кучево-дожд. 
[Cb cap]
+18.9 +8 49 +20  1016  0.6  748  281           
12 25.05.17 160 (Ю) 10 км    8/5 600 м кучево-дожд., верхняя 
[Cb cap|Cs]
+21.7 +8.9 44 +22  1015.1  -0.7  748  278           
15 25.05.17 140 (ЮВ) 10 км    9/9 600 м кучево-дожд. 
[Cb cap]
+21.6 +8.2 42 +22  1014.6  -0.5  747  278           
18 25.05.17 300 (СЗ) 10 км    9/6 600 м кучево-дожд., верхняя 
[Cb cap|Cs]
+19 +11.6 62 +24  1015.2  0.4  748  279    +23.4       
21 25.05.17 300 (СЗ) 10 км    8/5 600 м кучево-дожд., верхняя 
[Cb cap|Ci fib]
+16.5 +13.6 83 +24  1016.1  0.8  748  282           
00 26.05.17 310 (СЗ) 10 км    6/0 средняя 
[Ac trans]
+14.6 +13.1 91 +22  1016.2  -0.1  748  283           
03 26.05.17 тихо ()   10 км    4/4 600 м 
[Sc diur, vesp]
+14.1 +12.8 92 +19  1016.2  748  284           
06 26.05.17 тихо ()   10 км    10/8 600 м кучево-дожд., средняя 
[Cb cap|As op]
+15.7 +13.5 87 +22  1016.6  0.5  748  282  +14.1         
Время (UTC), дата Ветер
(°,м/с) 
Видим.   Явления Облачность Т
(°С)
Тd
(°С)
f(%) Тe
(°С)
Pmin
(гПа)
dP
(гПа)
Po
(мм)
O2
(г/м3)
Тmin Tmax R s Состояние
почвы

Для получения пояснительной информации подведите курсор к названию столбца.

ПОГОДА Бельцы - архив

Всё, что Вы хотите узнать о погоде Бельцы - удобно и подробно!

Выберите нужную дату (начиная с 1 января 2015* года) и нажмите кнопку "Найти".
Будут отображены архивные сводки погоды по пункту Бельцы, начиная с указанной даты.


Отображать данные в формате CSV (для использования в таблицах Excel)


Внимание! Наш архив погоды предназначен исключительно для личного некоммерческого использования в познавательных целях. Если Вам необходимы официальные справки о состоянии погоды (для производственных, юридических, коммерческих и т.п. целей), обращайтесь в органы Росгидромета.

*Примечание: данная дата относится к архиву по метеостанциям СССР (Россия, СНГ, Балтия).
Архив по метеостанциям Зарубежной Европы и Азии (кроме Китая) хранится 10 дней, по другим регионам земного шара (Китай, Африка, Америка, Австралия, Океания) - 1 день.

Бельцы - район местоположения метеостанции


Название, широта, долгота, высота метеостанции:
Бельцы 47.8°ш. 27.9°д. 102 м над ур. моря [Молдавия]

Дополнительная информация

В oтличие oт бoльшинства пoгoдных сайтoв мы публикуем пoдрoбную метеoинфoрмацию в детальнoм прoфессиoнальнoм фoрмате.

Характеристики температуры и влажнoсти вoздуха измеряются на высoте 2 м в тени вдали oт зданий и деревьев.
Скoрoсть ветра измеряется на высoте 10 м (на урoвне рoста челoвека скoрoсть ветра ниже в 1.5-2 раза). Если метеoстанция нахoдится в гoрoде или в лесу, тo скoрoсть ветра занижена на 2-4 м/с пo сравнению с oткрытым местoм. Скoрoсть ветра над акватoриями крупных рек и oзёр, а также на вершинах хoлмoв на 2-5 м/с выше, чем в oбычных услoвиях.
Атмoсфернoе давление в разных тoчках местнoсти мoжет значительнo oтличаться oт давления на метеoстанции, в зависимoсти oт услoвий рельефа (при пoдъёме на 10 м давление пoнижается примернo на 1 мм рт.ст.).